User: anonymous   Login
Location: Paris
(48.6709°N, 2.3750°E)
Time: 12:27:24
(UTC+01:00)
Language:

ASTRO E2 - Orbit

View from above orbital plane
View from above orbital plane
View from above satellite
View from above satellite

Ground track
Ground track

The orbit data is extracted from the following two-line orbital elements,

1 28773U 05025A   22338.10018822  .00005475  00000-0  22132-3 0  9993
2 28773  31.3798 271.2645 0004960 285.8676  74.1426 15.23212455960872
Epoch (UTC): 04 December 2022 02:24:16
Eccentricity: 0.0004960
inclination: 31.3798°
perigee height: 493 km
apogee height: 499 km
right ascension of ascending node: 271.2645°
argument of perigee: 285.8676°
revolutions per day: 15.23212455
mean anomaly at epoch: 74.1426°
orbit number at epoch: 96087

The dashed part of the orbit path shows where the satellite is in the earth's shadow,  

DLR